This is the latest recevied weather packets stored in our database for station/object KF6FPU-15. If no packets are shown the sender has not sent any weather packets the latest 10 day(s).
| Time | Temp. | Humidity | Pressure | Rain* | Wind** | Luminosity | Snow |
|---|---|---|---|---|---|---|---|
| 1788135782 | 92° F | 18% | 757.4 mmHg | - | - | - | - |
| 1788135182 | 93° F | 18% | 757.5 mmHg | - | - | - | - |
| 1788134582 | 92° F | 18% | 757.5 mmHg | - | - | - | - |
| 1788133982 | 94° F | 17% | 757.5 mmHg | - | - | - | - |
| 1788132782 | 97° F | 17% | 757.6 mmHg | - | - | - | - |
| 1788132182 | 98° F | 17% | 757.7 mmHg | - | - | - | - |
| 1788131582 | 101° F | 17% | 757.7 mmHg | - | - | - | - |
| 1788130982 | 102° F | 17% | 757.8 mmHg | - | - | - | - |
| 1788130382 | 104° F | 17% | 757.9 mmHg | - | - | - | - |
| 1788129782 | 105° F | 17% | 757.9 mmHg | - | - | - | - |
| 1788129182 | 103° F | 17% | 758 mmHg | - | - | - | - |
| 1788128582 | 102° F | 17% | 758.2 mmHg | - | - | - | - |
| 1788127982 | 102° F | 17% | 758.2 mmHg | - | - | - | - |
| 1788127382 | 102° F | 17% | 758.6 mmHg | - | - | - | - |
| 1788126182 | 102° F | 17% | 758.7 mmHg | - | - | - | - |
| 1788125582 | 100° F | 17% | 758.8 mmHg | - | - | - | - |
| 1788124982 | 100° F | 18% | 758.8 mmHg | - | - | - | - |
| 1788124382 | 101° F | 18% | 758.9 mmHg | - | - | - | - |
| 1788123782 | 99° F | 18% | 759 mmHg | - | - | - | - |
| 1788123182 | 101° F | 18% | 759.1 mmHg | - | - | - | - |
| 1788122582 | 100° F | 18% | 759.2 mmHg | - | - | - | - |
| 1788121982 | 99° F | 18% | 759.4 mmHg | - | - | - | - |
| 1788121382 | 99° F | 18% | 759.4 mmHg | - | - | - | - |
| 1788120782 | 99° F | 17% | 759.4 mmHg | - | - | - | - |
| 1788119582 | 103° F | 17% | 759.6 mmHg | - | - | - | - |
* Rain since midnight (hover to see other rain measurements)
** Current wind speed in m/s (hover to see current wind gust speed)